Regional Weather Roundup
Issued by NWS Green Bay, WI

Home | Current Version | Previous Version | Text Only | Print | Product List | Glossary On
Versions: 1 2 3 4 5 6 7 8 9 10 11 12 13 14 15 16 17 18 19 20 21 22 23 24 25 26 27 28 29 30 31 32 33 34 35 36 37 38 39 40 41 42 43 44 45 46 47 48 49 50
000
ASUS43 KGRB 050111
RWRGRB

NORTH-CENTRAL AND NORTHEAST WISCONSIN REGIONAL WEATHER ROUNDUP
NATIONAL WEATHER SERVICE GREEN BAY WI
800 PM CDT SAT JUL 04 2015

WIZ005-009-010>012-018-019-050200-
NORTH CENTRAL WISCONSIN

CITY           SKY/WX    TMP DP  RH WIND       PRES   REMARKS
IRONWOOD       MOCLDY    73  64  73 E5        29.90S
MANITOWISH WTR MOCLDY    74  61  63 CALM      29.95S
ARBOR VITAE    MOCLDY    77  64  63 SE3       29.96S
EAGLE RIVER    MOCLDY    72  59  64 CALM      29.96S
LAND O LAKES   MOCLDY    70  60  71 CALM      29.97F
RHINELANDER    MOCLDY    76  62  62 CALM      29.98R
PHILLIPS       CLEAR     76  62  61 S3        29.94S
ANTIGO         MOCLDY    71  64  79 S5        29.98R
TOMAHAWK       MOCLDY    73  64  73 CALM      29.96S
MERRILL        PTCLDY    77  62  60 CALM      29.96S
$$

WIZ013-073-050200-
NORTHEAST WISCONSIN

CITY           SKY/WX    TMP DP  RH WIND       PRES   REMARKS
IRON MOUNTAIN  MOCLDY    72  62  71 SE6       29.96R
MARINETTE      PTCLDY    70  57  64 S6        29.97R
OCONTO         PTCLDY    70  62  77 SE5       29.96F
$$

WIZ017-030-035>037-045-050200-
CENTRAL WISCONSIN

CITY           SKY/WX    TMP DP  RH WIND       PRES   REMARKS
MEDFORD        PTCLDY    75  64  66 S3        29.95S
WAUSAU         PTCLDY    77  63  61 CALM      29.94R HAZE
MOSINEE        CLEAR     77  64  65 S5        29.97R
MARSHFIELD     PTCLDY    77  62  59 SW5       29.95S HAZE
WISC RAPIDS    PTCLDY    77  63  61 SW7       29.96S
STEVENS POINT  PTCLDY    77  62  59 SW6       29.96S
WAUPACA        MOCLDY    78  65  63 CALM      29.95S
SHAWANO        MOCLDY    76  65  68 SE5       29.96R
CLINTONVILLE   PTCLDY    77  61  57 S5        29.94S
$$

WIZ038-039-048-051-050200-
FOX VALLEY

CITY           SKY/WX    TMP DP  RH WIND       PRES   REMARKS
NWS GREEN BAY  PTCLDY    74  63  68 SE6       29.96S
APPLETON       MOCLDY    77  61  57 SW6       29.96S
OSHKOSH        PTCLDY    73  65  75 S3        29.96R
FOND DU LAC    PTCLDY    77  64  64 S5        29.96S
$$

WIZ022-050-052-050200-
EAST CENTRAL WISCONSIN

CITY           SKY/WX    TMP DP  RH WIND       PRES   REMARKS
STURGEON BAY   CLEAR     66  57  72 SE9       30.01R
MANITOWOC      PTCLDY    65  60  84 MISG      29.99S
SHEBOYGAN      PTCLDY    71  60  68 S5        29.97S
$$

LMZ563-521-522-541>543-050200-
LAKESHORE

STATION/POSITION TIME  TEMP    WIND        PRES    VSBY  WAVE
                       AIR SEA DIR/SP/G                  HT/PER
                 (UTC) (F)     (DEG/KT/KT) (MB)    (MI)  (FT/S)
SHEBOYGAN LKSHOR 0100   63     160/  7/  8 1015.2F
KEWAUNEE LKSHORE 0000   62     170/  2/  5 1014.7F
ALGOMA MARINA    0011             CALM       N/A
NORTHPORT PIER   0000   67     150/  5/  6 1014.9F
N MID LAKE BUOY  0050   61 53  170/  2/  4 1015.4R         0
S GREEN BAY BUOY 0030   71 70  150/ 10/ 12 1016.1R
SISTER BAY LKSHO 0014   69     150/  7/  9   N/A
STURGEON BAY CG  0010   62     150/  4     1015.8   3 1/2  2
CHAMBERS ISLAND  0000   71     120/  5/  7 1014.9S
MENOMINEE LKSHOR 0000   71     150/  8/ 10 1015.2F
$$


USA.gov is the U.S. government's official web portal to all federal, state and local government web resources and services.